Location: Dealu Racovei
(46.1333°N, 22.7833°E)
Time: 09:08:30
(UTC+00:00)

Daily predictions for brighter satellites

Satellite Brightness Start Highest point End
(mag) Time Altitude Azimuth Time Altitude Azimuth Time Altitude Azimuth
SL-16 R/B 2.6 15:06:42 10° NNE 15:12:58 73° ESE 15:19:08 10° S
CORIOLIS 4.4 15:09:10 10° SE 15:14:13 45° ENE 15:19:16 10° N
Cosmos 44 3.5 15:14:39 10° NW 15:19:55 83° NE 15:25:18 10° SE
USA 276 1.8 15:18:55 10° W 15:20:05 29° SSW 15:21:13 10° SE
BREEZE-M DEB (TANK) 3.1 15:21:30 10° S 15:22:23 13° SE 15:23:20 10° ESE
Cosmos 1455 Rocket 3.0 15:18:41 10° S 15:22:59 90° ESE 15:27:21 10° N
Cosmos 2151 4.4 15:20:52 10° NNE 15:23:32 16° ENE 15:26:12 10° ESE
CZ-2D R/B 3.8 15:22:36 10° SE 15:25:11 23° ENE 15:27:45 10° NNE
NOSS 2-2 (C) 3.2 15:21:59 10° SSW 15:25:16 44° SE 15:28:11 10° NE
NOSS 8 (E) 4.4 15:22:29 10° NW 15:25:28 77° SW 15:29:00 10° SSE
Cosmos 1570 Rocket 4.4 15:23:08 10° N 15:28:11 41° ENE 15:33:11 10° SE
Cosmos 1782 3.7 15:26:26 10° SE 15:29:23 24° E 15:32:21 10° NE
Lacrosse 5 rocket 1.1 15:25:45 10° SW 15:29:31 77° SE 15:33:06 11° NE
Meteor 1-28 Rocket 2.8 15:26:24 10° NNE 15:29:46 83° ESE 15:33:06 10° SSW
Cosmos 1743 3.7 15:32:56 10° NNE 15:35:21 19° ENE 15:37:45 10° ESE
SMAP 3.0 15:35:31 10° SSE 15:40:07 67° ENE 15:44:45 10° N
YAOGAN 1 4.0 15:38:29 10° E 15:41:08 16° ENE 15:43:46 10° NNE
COSMO-SKYMED 1 4.2 15:42:46 13° E 15:43:20 13° E 15:45:19 10° ESE
GEOS 3 Rocket 4.2 15:39:56 10° NNE 15:45:11 56° NW 15:50:25 10° WSW
Meteor 1-27 4.3 15:40:18 10° S 15:46:09 90° ENE 15:51:58 10° N
Landsat 7 3.8 15:42:24 10° SSE 15:46:58 60° ENE 15:51:34 10° N
Lacrosse 4 Rocket 1.9 15:45:22 10° SW 15:49:24 56° NW 15:53:23 10° NNE
IRS-1C 4.1 15:48:51 10° SSE 15:54:07 71° ENE 15:59:27 10° N
CENTAUR R/B 2.8 15:49:22 10° SW 15:54:55 63° NW 16:01:58 10° NE
SPOT 1/Viking Rocket 4.1 15:50:22 10° SE 15:55:04 36° ENE 15:59:47 10° N
ATLAS CENTAUR R/B 2.0 15:52:44 10° NNW 15:55:22 22° NE 15:56:00 21° ENE
BREEZE-M DEB (TANK) 3.9 15:52:54 10° WNW 15:55:41 42° N 16:01:03 16° ENE
IGS 5A 4.4 15:52:15 10° S 15:56:06 49° W 15:59:57 10° NNW
AQUARIUS 4.1 15:53:29 10° SSE 15:57:47 57° ENE 16:02:07 10° N
MOS 1 Rocket 3.5 15:53:13 10° SSE 15:57:49 53° ENE 16:02:43 10° N
ARIANE 5 R/B 2.4 15:54:08 10° SSE 15:59:09 79° ENE 16:04:16 10° NNW
Cosmos 2208 Rocket 4.1 15:54:25 10° NNW 15:59:29 52° ENE 16:04:31 10° SE
Cosmos 1758 Rocket 3.4 15:55:37 10° N 15:59:55 63° ENE 16:04:10 10° SSE
Cosmos 2297 Rocket 2.5 15:54:32 10° NNW 15:59:57 42° NE 16:05:17 10° SE
Cosmos 2098 Rocket 2.9 15:58:12 10° S 16:01:45 52° E 16:05:59 10° NNE
Cosmos 2084 4.3 15:58:59 10° WSW 16:02:59 42° NW 16:06:28 13° NNE
USA 215 4.0 15:58:37 16° ENE 16:03:12 37° N 16:09:05 10° NW
Cosmos 773 Rocket 4.0 15:58:25 10° NNW 16:03:33 56° ENE 16:08:40 10° SE
CZ-2D R/B 4.2 16:00:13 10° SE 16:03:55 31° ENE 16:07:38 10° N
UNK 4.0 16:02:29 10° N 16:07:05 70° WNW 16:11:37 10° SSW
Cosmos 1656 3.7 16:06:59 10° SSW 16:12:31 68° ESE 16:17:23 14° NNE
Cosmos 1241 Rocket 4.5 16:07:23 10° SSW 16:13:45 73° ESE 16:18:47 17° NE
Cosmos 2228 4.1 16:14:08 10° SSW 16:18:11 45° WNW 16:22:17 10° N
Cosmos 405 Rocket 3.3 16:18:26 10° NNW 16:21:37 48° W 16:24:44 10° S
NOSS 2-2 (D) 2.6 16:18:41 10° SW 16:22:08 87° NW 16:23:09 39° NE
Cosmos 1626 Rocket 4.1 16:21:00 10° NNW 16:25:17 59° W 16:29:31 10° S
NOSS 2-2 (E) 2.6 16:22:14 10° SW 16:25:42 79° SE 16:26:26 49° NE
SJ-6F 4.4 16:22:39 10° SSE 16:26:36 82° WSW 16:30:36 10° NNW
Cosmos 1980 Rocket 4.2 16:25:06 10° SE 16:25:21 11° SE 16:25:21 11° SE
Helios 1A Rocket 4.5 16:30:55 16° SSE 16:30:55 16° SSE 16:31:50 10° SSE
Okean 1-7 Rocket 3.5 16:27:25 10° N 16:31:48 59° ENE 16:36:06 10° SSE
Cosmos 1606 Rocket 3.8 16:28:27 10° SSE 16:32:38 45° E 16:33:46 37° NE
Cosmos 2279 Rocket 4.5 16:27:26 10° SSW 16:33:33 62° WNW 16:39:44 10° N
Cosmos 1461 3.7 16:33:10 10° S 16:36:00 29° SE 16:36:00 29° SE
Resurs 1-3 3.6 16:33:30 10° SSE 16:37:41 53° ENE 16:41:54 10° N
Cosmos 2360 4.1 16:32:40 10° SSW 16:38:22 80° ESE 16:42:03 23° NNE
CZ-4C R/B 3.0 16:32:00 10° NNW 16:38:44 57° NE 16:44:46 20° ESE
NOSS 3-2 (C) 3.2 16:35:14 10° SSW 16:40:02 55° ESE 16:41:55 37° ENE
BlueWalker 3 1.6 16:36:30 10° WNW 16:40:08 78° NNE 16:40:30 67° E
NOSS 3-2 (A) 3.5 16:38:29 10° SW 16:43:27 62° NW 16:47:01 24° NNE
Cosmos 2263 Rocket 3.3 16:40:18 10° N 16:44:07 26° NNE 16:44:07 26° NNE
Cosmos 1503 Rocket 3.9 16:42:23 10° SSW 16:47:37 71° ESE 16:49:52 34° NNE
SKYMED 2 3.5 16:46:36 23° NNE 16:49:19 86° WNW 16:53:40 10° SSW
IRAS Rocket 4.1 16:44:13 10° SSE 16:49:39 69° ENE 16:55:07 10° NNW
Cosmos 2227 Rocket 2.4 16:45:13 10° NNW 16:50:39 46° ENE 16:51:16 44° ENE
Cosmos 1354 Rocket 4.0 16:47:57 10° S 16:53:05 56° ESE 16:53:57 50° ENE
Cosmos 1933 3.0 16:49:38 10° S 16:53:28 83° E 16:53:31 83° ENE
Spot 4 Rocket 3.9 16:50:14 10° SSE 16:55:20 88° ENE 17:00:29 10° NNW
USA 290 3.7 16:52:47 10° NNW 16:54:37 30° NNW 16:54:37 30° NNW
BREEZE M DEB (TANK) 3.4 16:48:52 10° WNW 16:58:01 58° SW 16:59:19 37° SSE
Cosmos 2151 3.9 16:56:38 10° NNW 17:00:37 47° W 17:04:36 10° SSW
Cosmos 1726 Rocket 3.6 16:56:01 10° S 17:00:32 67° ESE 17:00:32 67° ESE
Cosmos 1867 3.6 16:57:52 10° NNW 17:03:15 57° NE 17:03:27 57° ENE
Lacrosse 5 rocket 2.8 17:03:46 10° W 17:06:43 24° NNW 17:06:43 24° NNW
Gbstr 26 Del rocket 4.4 17:04:05 10° SSW 17:06:06 23° S 17:06:06 23° S
Cosmos 1697 Rocket 2.5 17:04:59 10° SSW 17:10:32 69° ESE 17:11:02 65° ENE
Cosmos 1777 Rocket 4.4 17:07:31 10° SSW 17:12:44 62° WNW 17:15:05 32° N
YAOGAN 1 3.1 17:12:22 10° S 17:16:32 57° W 17:20:45 10° NNW
COSMO-SKYMED 1 2.8 17:19:06 60° WNW 17:19:06 60° WNW 17:23:05 10° SSW
PSLV R/B 4.1 17:17:04 10° S 17:21:33 50° WNW 17:24:59 10° NNW
Cosmos 1607 4.2 17:20:54 10° NW 17:27:03 65° WSW 17:30:36 27° SSE
BREEZE-M DEB (TANK) 4.2 17:24:19 10° WNW 17:28:25 77° NNE 17:30:10 56° E
ATLAS CENTAUR R/B 3.5 17:27:22 10° NW 17:28:21 17° WNW 17:28:21 17° WNW
NOAA 6 4.5 17:32:20 10° S 17:37:22 59° WSW 17:42:25 10° NNW
USA 238 DEB 4.5 17:33:15 10° SSW 17:36:31 32° S 17:36:31 32° S
Cosmos 2297 Rocket 3.7 17:38:49 10° NW 17:43:50 33° WSW 17:48:50 10° SSW
USA 215 3.3 17:45:58 64° N 17:45:58 64° N 17:52:04 10° NW
CENTAUR R/B 4.3 17:41:57 10° WNW 17:47:06 25° NNW 17:49:09 22° N
Cosmos 1980 Rocket 4.1 18:05:32 10° SSW 18:07:09 20° SSW 18:07:09 20° SSW
CZ-4C R/B 3.9 18:20:18 10° NW 18:27:13 45° WSW 18:29:52 35° SSW
Cosmos 2263 Rocket 4.1 18:23:48 10° NNW 18:25:49 22° NW 18:25:49 22° NW
Cosmos 2227 Rocket 4.0 18:29:36 10° NW 18:33:08 27° W 18:33:08 27° W
